ROMMA est une association bénévole à but non lucratif. Votre soutien est indispensable : ADHERER à ROMMA ou FAIRE un DON

Le Versoud - (38, Isère)

Vallée du Grésivaudan (220 m)   Longitude: 05° 51' 44" E   Latitude: 45° 13' 06" N Station partenaire n°6
 

Détail journalier du     <<     >>

Température Humidité Pression Vent Dir Rafale Dir. rafale Ensol.
Heure (°C) (%) (hPa) (km/h) (km/h) (min)
01:00 13.293100600---0
02:00 13.093100600---0
03:00 13.092100600---0
04:00 12.891100606ENE0
05:00 12.392100602NE0
06:00 12.6901006010NE0
07:00 12.49010061---15NE0
08:00 12.2901006011ENE0
09:00 12.88910061ENE15ENE0
10:00 13.68710061NE15NE5
11:00 16.48010061ENE15ENE60
12:00 18.27410052ENE16E40
13:00 19.67210041NE16ENE5
14:00 20.96910032NE19NE15
15:00 22.46210035NE23NE55
16:00 27.33110035NE39SSE60
17:00 28.62610039SSO47SSO55
18:00 27.827100413SSO64SSE35
19:00 26.33110048S45SSE20
20:00 25.535100612SSO42OSO0
21:00 22.84710078OSO45OSO0
22:00 19.96410093SO34SSO0
23:00 18.27510101---15SE0
minuit 16.685100900---0

Graphique du 20-10-2019

 

Serveur OMMA